Retour au catalogue

GLOBALSTAR M100

ActifCommunicationsLEO
NORAD 100332·PAYLOAD·🇺🇸 United States

Lancé Aug 16, 2026 depuis Cape Canaveral Space Force Station

Loading…

Prochains Passages (prochaines 24 heures)

TLE

FraisSource: Space-Track

Époque: Sep 14, 2026, 14:29 UTC

1 A0332U 26185H   26257.60380462  .00000223  00000-0  78983-4 0  9997
2 A0332  51.9953 110.8820 0008603 327.7685  32.2745 14.64001229  4328

Suivez GLOBALSTAR M100 en temps réel avec AllMySat

Download on the App Store